Regional Weather Roundup
Issued by NWS

Home | Current Version | Previous Version | Text Only | Print | Product List | Glossary Off
Versions: 1 2 3 4 5 6 7 8 9 10 11 12 13 14 15 16 17 18 19 20 21 22 23 24 25 26 27 28 29 30 31 32 33 34 35 36 37 38 39 40 41 42 43 44 45 46 47 48 49 50

000
ASUS43 KMKX 201900
RWRWI

WISCONSIN REGIONAL WEATHER ROUNDUP
NATIONAL WEATHER SERVICE MILWAUKEE/SULLIVAN WI
200 PM CDT WED SEP 20 2017

NOTE: "FAIR" INDICATES FEW OR NO CLOUDS BELOW 12,000 FEET WITH NO
SIGNIFICANT WEATHER AND/OR OBSTRUCTIONS TO VISIBILITY.

WIZ001-002-006>008-014>016-023>028-202000-
NORTHWEST WISCONSIN

CITY           SKY/WX    TMP DP  RH WIND       PRES   REMARKS
SUPERIOR ARPT  MOSUNNY   72  61  70 W7G17     29.74R
ASHLAND        MOSUNNY   77  67  71 S13G22    29.72S
HAYWARD        CLOUDY    69  61  75 SW8       29.79R
SIREN          PTSUNNY   73  58  57 W7        29.78R
CUMBERLAND     CLOUDY    68  57  68 W8        29.79S
RICE LAKE      CLOUDY    70  60  70 W10       29.81R
CHETEK         CLOUDY    73  65  77 W6        29.79R
LADYSMITH      CLOUDY    73  67  80 S6        29.80R
EAU CLAIRE     NOT AVBL
MENOMONIE      PTSUNNY   74  65  74 W13       29.78S
NEW RICHMOND   MOSUNNY   73  55  53 W5        29.80R
OSCEOLA        SUNNY     75  55  49 W8        29.82R
$$

WIZ003>005-009-010-017-018-202000-
NORTH CENTRAL WISCONSIN

CITY           SKY/WX    TMP DP  RH WIND       PRES   REMARKS
MANITOWISH WTR CLOUDY    65  65 100 S15       29.79S
ARBOR VITAE    CLOUDY    67  65  91 S10G16    29.81S
WOODRUFF       CLOUDY    67  65  91 S10G16    29.81S
RHINELANDER    CLOUDY    66  65  96 S8        29.83S FOG
EAGLE RIVER    CLOUDY    65  64  97 S9        29.82S FOG
LAND O LAKES   CLOUDY    66  64  91 S10       29.83S
PHILLIPS       CLOUDY    67  66  97 S7        29.79S
TOMAHAWK         N/A     66  64  91 S5        29.82S FOG
MEDFORD        CLOUDY    70  66  86 SE9       29.81S
MERRILL        NOT AVBL
$$

WIZ029-030-035-036-043>047-202000-
CENTRAL WISCONSIN

CITY           SKY/WX    TMP DP  RH WIND       PRES   REMARKS
WAUSAU         CLOUDY    72  67  84 S8        29.79F
MOSINEE        NOT AVBL
MARSHFIELD     CLOUDY    75  66  73 S9        29.80S
STEVENS POINT  CLOUDY    74  68  80 S9        29.81F
WAUPACA        PTSUNNY   83  69  61 SE13G20   29.80F HX  87
WAUTOMA        PTSUNNY   85  71  63 SE13      29.78F HX  90
WISC RAPIDS    CLOUDY    78  69  73 S3        29.80F HX  80
CAMP DOUGLAS   NOT AVBL
$$

WIZ011>013-019>022-031-037>040-048>050-202000-
NORTHEAST WISCONSIN

CITY           SKY/WX    TMP DP  RH WIND       PRES   REMARKS
ANTIGO         CLOUDY    68  67  96 SE10      29.83F FOG
SHAWANO        PTSUNNY   81  69  65 SE8G16    29.80F HX  84
OCONTO         CLOUDY    74  65  74 SE16G23   29.82F
STURGEON BAY   CLOUDY    73  65  75 S20G38    29.85F
GREEN BAY      CLOUDY    79  68  69 SE20G28   29.82F HX  81
MANITOWOC      CLOUDY    71  66  84 SE17G26   29.86F
APPLETON       NOT AVBL
CLINTONVILLE   MOSUNNY   79  64  61 S15G21    29.80F HX  81
OSHKOSH        SUNNY     82  69  64 SE16G24   29.79F HX  85
$$

WIZ032>034-041-042-053>061-202000-
SOUTHWEST WISCONSIN

CITY           SKY/WX    TMP DP  RH WIND       PRES   REMARKS
LA CROSSE      PTSUNNY   83  70  64 SW9       29.76S HX  87
SPARTA         CLOUDY    80  70  69 SW3       29.78S HX  84
VIROQUA        CLOUDY    79  71  74 SW8       29.81R HX  82
BOSCOBEL       PTSUNNY   87  70  56 S8        29.77F HX  92
PRAIRIE DU CHI CLOUDY    84  67  57 S5        29.77S HX  86
PLATTEVILLE    SUNNY     88  72  60 S13G21    29.81F HX  94
$$

WIZ056-057-062-063-064-067-068-202000-
SOUTH CENTRAL WISCONSIN

CITY           SKY/WX    TMP DP  RH WIND       PRES   REMARKS
REEDSBURG      MOSUNNY   86  70  60 S12       29.78F HX  90
BARABOO/DELLS  SUNNY     86  66  51 S15G23    29.79F HX  88
LONE ROCK      NOT AVBL
MINERAL POINT  SUNNY     88  72  58 S15G22    29.81F HX  94
MADISON        MOSUNNY   88  70  55 S23G29    29.79F HX  93
MIDDLETON      SUNNY     89  69  51 S16G24    29.80F HX  92
WATERTOWN      SUNNY     88  70  56 S14       29.82F HX  93
MONROE         SUNNY     86  68  54 S20       29.82F HX  89
JANESVILLE     MOSUNNY   91  66  43 S10       29.83F HX  94
$$

WIZ051-052-058>065-066-070>072-202000-
SOUTHEAST WISCONSIN

CITY           SKY/WX    TMP DP  RH WIND       PRES   REMARKS
MILWAUKEE      MOSUNNY   78  69  73 SE18      29.87F HX  80
WAUKESHA       SUNNY     84  66  54 SE13G18   29.86F HX  86
MILWAUKEE/TIMM SUNNY     81  64  57 E10G16    29.87F HX  82
RACINE         SUNNY     79  69  71 SE15G22   29.90F HX  81
BURLINGTON     SUNNY     89  70  52 S10G18    29.85F HX  95
KENOSHA        SUNNY     84  69  60 SE13      29.88F HX  88
FOND DU LAC    SUNNY     85  67  54 SE17G26   29.81F HX  87
SHEBOYGAN      MOSUNNY   74  68  81 SE16G24   29.87F
WEST BEND        N/A     77  68  73 SE15      29.86F
JUNEAU         SUNNY     84  70  62 SE15G23   29.84F HX  88
$$

LSZ147-162-202000-
LAKE SUPERIOR

STATION/POSITION TIME  TEMP    WIND        PRES    WAVE
                       AIR SEA DIR/SP/G            HT/PER
                 (UTC) (F)     (DEG/KT/KT) (MB)    (FT/S)
W MID LAKE BUOY  1750   63 54  210/  8/  8 1006.1R   3/ 5
DEVILS ISLAND    1800   70     180/  8/ 13 1005.5R
SAXON HARBOR     1840   71     200/  7/ 16 1006.4R
$$

LMZ867-665-643>646-202000-
LAKE MICHIGAN

STATION/POSITION TIME  TEMP    WIND        PRES    WAVE
                       AIR SEA DIR/SP/G            HT/PER
                 (UTC) (F)     (DEG/KT/KT) (MB)    (FT/S)
S GREEN BAY BUOY 1800   70 66  150/ 17/ 23 1010.4
N MID LAKE BUOY  1750   66 65  150/  8/ 10 1012.8F   1/ 4
NORTHPORT PIER   1840   67     150/ 12/ 19 1011.2F
KEWAUNEE LAKESHO 1830   64     170/ 16/ 18 1011.0F
SHEBOYGAN LAKESH 1800   66     150/ 17/ 18 1012.3F
PORT WASHINGTON  1840   71     150/  9/ 12 1012.5F
ATWATER BUOY     1709   69 68  150/ 12/ 16 1012.9F
MILWAUKEE LAKESH 1830   69     140/ 15/ 16   N/A
S MID LAKE BUOY  1750   70 69  100/ 12/ 14 1013.5F   2/ 4
KENOSHA   LAKESH 1800   71     160/ 14/ 16 1012.2
$$

TC  - TEMPERATURE IN CELSIUS
VSB - VISIBILITY IN STATUTE MILES
WCI - WIND CHILL INDEX
HX  - HEAT INDEX





USA.gov is the U.S. government's official web portal to all federal, state and local government web resources and services.